Location: Wellington
(46.4530°N, 64.0000°W)
Time: 09:37:48
(UTC+00:00)

Daily predictions for brighter satellites

Satellite Brightness Start Highest point End
(mag) Time Altitude Azimuth Time Altitude Azimuth Time Altitude Azimuth
Cosmos 1943 Rocket 3.0 21:05:38 10° SSE 21:10:30 31° ESE 21:15:21 10° NE
Landsat 7 4.3 21:08:15 10° SE 21:12:29 36° ENE 21:16:44 10° N
Cosmos 1269 Rocket 4.0 21:08:24 10° SSW 21:13:38 77° ESE 21:18:56 10° NNE
Cosmos 2082 Rocket 3.1 21:11:14 10° N 21:16:01 28° NE 21:20:46 10° ESE
Cosmos 2278 Rocket 2.9 21:14:50 10° S 21:19:54 35° ESE 21:25:00 10° NE
Cosmos 2016 Rocket 4.2 21:14:16 10° S 21:20:35 84° W 21:27:00 10° N
ATLAS CENTAUR R/B 3.4 21:19:10 10° WNW 21:21:19 15° NW 21:23:28 10° N
Thor Agena Rocket 3.6 21:17:40 10° SSE 21:22:56 87° ENE 21:28:14 10° NNW
Tsikada Rocket 4.1 21:16:47 10° N 21:23:14 80° E 21:29:35 10° SSE
YAOGAN 1 4.1 21:23:07 10° E 21:25:38 16° ENE 21:28:09 10° NNE
SL-12 R/B(2) 4.5 21:18:10 10° SSW 21:25:45 57° ESE 21:34:56 10° NE
SJ 16-02 3.0 21:24:31 10° SE 21:26:50 14° E 21:28:53 11° ENE
Cosmos 1441 Rocket 4.2 21:23:43 10° NNW 21:26:56 44° W 21:30:09 10° S
Cosmos 2251 Rocket 4.5 21:23:47 10° SSE 21:28:08 27° E 21:32:33 10° NE
SAR-Lupe-4 3.6 21:24:47 10° SSE 21:28:17 56° ENE 21:31:49 10° N
Cosmos 2084 Rocket 4.3 21:25:04 10° WSW 21:29:06 46° NW 21:33:09 10° NNE
UNK 3.7 21:25:12 10° NNE 21:29:49 72° ESE 21:34:24 10° S
Aureole 3 Rocket 3.4 21:30:07 10° SE 21:32:33 22° E 21:35:05 10° NE
SL-16 R/B 3.1 21:31:23 10° N 21:37:34 62° WNW 21:43:42 10° SSW
ARIANE 5 R/B 2.4 21:41:45 10° SSE 21:46:44 85° ENE 21:51:45 10° NNW
CZ-4C R/B 3.9 21:43:05 10° WNW 21:46:51 21° NNW 21:51:20 10° NNE
Cosmos 1602 4.0 21:44:17 10° NNE 21:47:01 28° ENE 21:49:42 10° SE
Cosmos 468 Rocket 4.3 21:42:37 10° N 21:47:35 43° ENE 21:52:28 10° SE
Cosmos 1536 Rocket 4.4 21:44:42 10° NNE 21:48:34 28° ENE 21:52:22 10° SE
COSMOS 2406 4.1 21:44:21 10° N 21:49:12 28° NE 21:53:22 13° ESE
Nadezhda 4 Rocket 4.5 21:43:28 10° N 21:49:14 37° ENE 21:54:56 10° SE
Okean 2 Rocket 4.2 21:46:34 10° SE 21:49:59 23° E 21:52:28 14° NE
Cosmos 1833 Rocket 4.0 21:47:47 10° NW 21:53:07 44° WSW 21:58:25 10° S
ISS -3.8 21:50:39 10° WSW 21:54:00 88° NNW 21:55:57 23° ENE
CZ-2D R/B 2.8 21:50:54 10° S 21:54:03 82° WSW 21:57:14 10° NNW
SJ-6F 4.2 21:51:10 10° SSE 21:55:02 66° ENE 21:58:56 10° N
MOS 1 Rocket 3.1 21:51:53 10° SSE 21:56:06 56° ENE 22:00:29 10° N
RESURS DK-1 2.2 21:52:12 10° NNW 21:56:13 81° ENE 22:00:12 10° SSE
ATLAS 2AS CENTAUR R/B 3.8 21:51:40 10° NNW 21:57:08 25° NNE 22:00:27 17° ENE
Cosmos 1190 Rocket 4.4 21:53:31 10° S 21:58:26 41° ESE 22:02:52 13° NE
Cosmos 1869 2.9 21:55:03 10° S 21:58:34 88° E 22:02:06 10° N
Resurs 01 Rocket 3.7 22:01:13 11° NNE 22:01:13 11° NNE 22:01:40 10° NNE
IRS-P3 4.0 21:54:52 10° SSE 22:00:11 79° ENE 22:05:32 10° NNW
ATLAS 5 CENTAUR R/B 3.3 21:56:15 10° NW 22:00:30 40° WSW 22:05:40 10° S
Meteor 2-12 Rocket 4.5 21:59:43 10° N 22:05:51 87° W 22:11:55 10° S
Timation 1 Rocket 4.3 22:00:07 10° NNW 22:06:06 90° W 22:12:05 10° SSE
SJ-12 4.2 22:03:55 10° S 22:07:40 61° WSW 22:11:27 10° NNW
Cosmos 407 Rocket 3.6 22:04:28 10° SSW 22:09:40 78° WNW 22:14:50 10° NNE
Meteor 2-3 Rocket 4.4 22:05:15 10° N 22:10:14 30° ENE 22:15:09 10° SE
Cosmos 1812 1.8 22:08:12 10° S 22:11:05 81° E 22:12:59 19° NNE
Cosmos 1954 Rocket 4.3 22:06:21 10° S 22:11:18 43° ESE 22:14:41 19° NE
BREEZE-M DEB (TANK) 2.8 22:09:08 10° WSW 22:11:42 74° SSE 22:14:41 25° ENE
COSMO-SKYMED 1 3.0 22:10:31 24° NE 22:12:21 36° E 22:16:09 10° SSE
USA 215 3.7 22:07:40 10° SE 22:14:08 64° SW 22:20:39 10° NW
Cosmos 1400 Rocket 3.1 22:10:41 10° SSE 22:14:14 39° E 22:15:12 32° ENE
Timation 2 Rocket 4.3 22:09:35 10° SSW 22:16:29 82° WNW 22:23:22 10° NNE
SPOT 1/Viking Rocket 3.4 22:14:16 10° SSE 22:19:24 70° ENE 22:24:34 10° N
BREEZE-M DEB (TANK) 2.3 22:16:55 10° W 22:19:29 76° NNW 22:21:51 29° ENE
Cosmos 540 Rocket 4.1 22:24:37 10° NNW 22:29:39 57° WSW 22:34:37 10° S
Cosmos 2058 2.8 22:25:51 10° NNW 22:29:50 80° W 22:33:48 10° S
Spot 4 Rocket 3.9 22:27:30 10° SSE 22:32:35 78° ENE 22:37:41 10° NNW
Helios 1A Rocket 2.5 22:32:56 56° SE 22:32:56 56° SE 22:35:56 10° S
Cosmos 2151 Rocket 3.5 22:28:20 10° S 22:32:48 79° E 22:37:19 10° NNE
SJ-7 3.9 22:32:09 10° SSE 22:35:50 78° ENE 22:39:31 10° N
USA 281 3.8 22:35:46 31° ENE 22:36:55 33° NE 22:42:39 10° N
Cosmos 1464 Rocket 3.9 22:31:34 10° S 22:37:52 84° E 22:44:08 10° N
CZ-2D R/B 3.5 22:34:41 10° S 22:38:48 78° WSW 22:43:03 10° NNW
Cosmos 44 Rocket 3.6 22:35:32 10° SW 22:40:16 63° NW 22:42:56 26° NNE
PSLV R/B 3.2 22:37:12 10° SSE 22:41:14 80° ENE 22:45:17 10° NNW
SKYMED 2 3.6 22:37:14 10° N 22:41:36 78° WNW 22:45:56 10° SSW
Okean 1 Rocket 2.9 22:37:43 10° S 22:42:03 63° E 22:43:04 48° NE
Sich 1 Rocket 3.5 22:39:32 10° S 22:44:02 68° E 22:45:47 36° NNE
Cosmos 2034 Rocket 3.8 22:45:05 10° S 22:51:14 72° E 22:57:30 10° NNE
Cosmos 1943 Rocket 3.1 22:48:40 10° SW 22:54:02 45° WNW 22:58:41 14° NNE
IRAS Rocket 4.5 22:52:07 10° S 22:57:39 69° WSW 23:03:11 10° NNW
NOAA 6 3.9 22:55:01 10° SSE 23:00:10 88° ENE 23:05:21 10° NNW
Cosmos 2082 Rocket 2.8 22:54:56 10° NW 23:00:25 57° WSW 23:05:53 10° S
YAOGAN 1 3.0 22:56:48 10° S 23:01:00 61° WSW 23:05:15 10° NNW
Cosmos 2344 3.9 22:55:04 10° NW 23:02:56 67° NE 23:07:42 34° ESE
Cosmos 2278 Rocket 3.3 22:58:34 10° SW 23:03:53 41° NW 23:08:18 15° N
SJ 16-02 1.7 23:00:10 10° SSW 23:04:25 60° WNW 23:05:28 45° NNW
Geosat 3.8 23:04:26 71° ESE 23:04:50 76° ENE 23:09:52 10° NNW
Meteor 2-1 Rocket 4.2 22:59:18 10° S 23:05:11 78° E 23:09:53 17° NNE
Cosmos 1862 4.5 23:02:35 10° NNW 23:05:58 37° W 23:09:20 10° SSW
Cosmos 1932 4.4 22:59:52 10° SSW 23:06:09 69° ESE 23:07:25 55° ENE
Cosmos 1092 Rocket 3.8 23:00:16 10° N 23:06:30 67° E 23:09:30 32° SSE
Cosmos 371 Rocket 3.3 23:02:49 10° SSW 23:07:38 79° WNW 23:08:24 61° N
Cosmos 304 Rocket 3.8 23:03:24 10° SSW 23:08:07 75° WNW 23:08:56 59° N
Cosmos 2251 Rocket 4.5 23:05:02 10° SW 23:10:05 45° WNW 23:13:55 17° N
Cosmos 2026 Rocket 3.8 23:06:35 10° N 23:12:42 83° E 23:18:51 10° S
Resurs 1-3 4.4 23:09:23 10° S 23:13:32 48° W 23:17:42 10° NNW
Cosmos 2369 Rocket 4.0 23:08:29 10° S 23:09:52 17° SSE 23:09:52 17° SSE
Cosmos 841 Rocket 3.6 23:10:33 10° NNW 23:15:48 73° WSW 23:17:32 42° S
BREEZE-M DEB (TANK) 4.2 23:27:44 10° W 23:30:47 50° N 23:30:47 50° N
ISS -0.8 23:27:56 10° WNW 23:28:52 16° WNW 23:28:52 16° WNW
Cosmos 1656 Rocket 3.7 23:27:42 10° SSW 23:32:43 72° WSW 23:32:43 72° WSW
COSMOS 2406 3.7 23:28:16 10° NW 23:33:50 57° WSW 23:35:29 41° SSW
Resurs 01 Rocket 4.0 23:38:37 15° NNW 23:38:37 15° NNW 23:39:26 10° NNW
CZ-4C R/B 4.4 23:33:52 10° NNW 23:37:26 16° N 23:37:26 16° N
ATLAS 2AS CENTAUR R/B 3.0 23:42:30 10° NW 23:47:53 54° N 23:47:53 54° N
